EW6157 Weather Reports


time (UTC)temp
C
wind
direction
speed
KPH
gust
KPH
rain 1hr
cm
rain 24hr
cm
rain mn
cm
humidity
%
barometer
mb
20240222101126 7 290 4.8 11.3 0.00 0.00 0.00 33 1009.0
20240222100047 6 304 6.4 11.3 0.00 0.00 0.00 36 1009.0
20240222095618 6 328 4.8 11.3 0.00 0.00 0.00 38 1009.1
20240222095133 6 316 3.2 9.7 0.00 0.00 0.00 37 1009.2
20240222094518 6 326 3.2 8.0 0.00 0.00 0.00 36 1009.2
20240222094032 6 323 3.2 8.0 0.00 0.00 0.00 35 1009.2
20240222093609 6 319 4.8 12.9 0.00 0.00 0.00 35 1009.2
20240222093125 7 325 3.2 12.9 0.00 0.00 0.00 34 1009.2
20240222092517 7 315 4.8 12.9 0.00 0.00 0.00 34 1009.2
20240222092032 7 335 6.4 12.9 0.00 0.00 0.00 34 1009.2
20240222091606 7 321 4.8 12.9 0.00 0.00 0.00 35 1009.2
20240222091124 6 293 3.2 9.7 0.00 0.00 0.00 36 1009.2
20240222090532 6 321 1.6 9.7 0.00 0.00 0.00 37 1009.0
20240222090047 6 313 3.2 8.0 0.00 0.00 0.00 37 1009.0
20240222085624 6 332 3.2 6.4 0.00 0.00 0.00 37 1008.9
20240222085002 6 300 1.6 6.4 0.00 0.00 0.00 37 1008.9
20240222084535 6 333 1.6 8.0 0.00 0.00 0.00 36 1009.0
20240222084055 6 311 3.2 8.0 0.00 0.00 0.00 36 1009.0
20240222083606 6 324 3.2 8.0 0.00 0.00 0.00 35 1009.0
20240222083123 6 330 3.2 9.7 0.00 0.00 0.00 35 1009.0
20240222082522 6 322 4.8 9.7 0.00 0.00 0.00 35 1009.0
20240222082039 6 317 0.0 11.3 0.00 0.00 0.00 35 1009.0
20240222081532 6 290 1.6 11.3 0.00 0.00 0.00 34 1008.9
20240222081046 6 310 1.6 6.4 0.00 0.00 0.00 34 1008.9
20240222080601 6 310 1.6 6.4 0.00 0.00 0.00 35 1008.8
20240222080119 6 316 0.0 6.4 0.00 0.00 0.00 36 1008.7
20240222075522 6 293 1.6 4.8 0.00 0.00 0.00 36 1008.7
20240222075042 6 309 0.0 0.0 0.00 0.00 0.00 36 1008.7
20240222074609 6 353 0.0 0.0 0.00 0.00 0.00 35 1008.8
20240222074126 7 335 0.0 0.0 0.00 0.00 0.00 34 1008.8
20240222073528 7 321 0.0 0.0 0.00 0.00 0.00 34 1008.6
20240222073040 7 351 0.0 3.2 0.00 0.00 0.00 33 1008.6
20240222072616 7 343 0.0 3.2 0.00 0.00 0.00 34 1008.6
20240222072133 7 294 0.0 6.4 0.00 0.00 0.00 34 1008.4
20240222071516 7 292 1.6 8.0 0.00 0.00 0.00 32 1008.4
20240222071037 7 326 3.2 8.0 0.00 0.00 0.00 31 1008.4
20240222070546 7 282 3.2 8.0 0.00 0.00 0.00 32 1008.4
20240222070106 7 328 1.6 4.8 0.00 0.00 0.00 32 1008.3
20240222065611 7 324 1.6 4.8 0.00 0.00 0.00 31 1008.5
20240222065123 7 324 1.6 4.8 0.00 0.00 0.00 31 1008.5
20240222064526 7 314 0.0 4.8 0.00 0.00 0.00 32 1008.4
20240222064037 6 295 0.0 3.2 0.00 0.00 0.00 32 1008.5
20240222063610 6 306 0.0 3.2 0.00 0.00 0.00 33 1008.5
20240222063131 6 300 0.0 4.8 0.00 0.00 0.00 33 1008.5
20240222062525 6 275 0.0 4.8 0.00 0.00 0.00 33 1008.5
20240222062042 7 321 1.6 6.4 0.00 0.00 0.00 33 1008.2
20240222061617 7 330 1.6 9.7 0.00 0.00 0.00 32 1008.2
20240222061134 7 349 3.2 9.7 0.00 0.00 0.00 31 1008.1
20240222060535 7 342 3.2 6.4 0.00 0.00 0.00 31 1007.9
20240222060051 7 304 1.6 8.0 0.00 0.00 0.00 30 1008.0
20240222055605 7 321 3.2 8.0 0.00 0.00 0.00 29 1008.1
20240222055123 8 335 3.2 6.4 0.00 0.00 0.00 28 1008.1
20240222054521 8 302 1.6 8.0 0.00 0.00 0.00 27 1008.1
20240222054046 8 344 1.6 9.7 0.00 0.00 0.00 28 1008.1
20240222053614 8 319 3.2 9.7 0.00 0.00 0.00 27 1008.1
20240222053133 8 326 3.2 9.7 0.00 0.00 0.00 26 1008.1
20240222052537 8 334 4.8 12.9 0.00 0.00 0.00 27 1008.1
20240222052050 8 351 4.8 12.9 0.00 0.00 0.00 27 1008.2
20240222051622 8 332 4.8 14.5 0.00 0.00 0.00 27 1008.2
20240222051001 8 333 8.0 14.5 0.00 0.00 0.00 27 1008.3
20240222050520 8 328 4.8 11.3 0.00 0.00 0.00 27 1008.3
20240222050038 8 328 4.8 11.3 0.00 0.00 0.00 27 1008.3
20240222045609 8 332 4.8 11.3 0.00 0.00 0.00 28 1008.4
20240222045124 8 323 3.2 9.7 0.00 0.00 0.00 28 1008.3
20240222044529 8 321 3.2 9.7 0.00 0.00 0.00 27 1008.3
20240222044043 8 326 3.2 9.7 0.00 0.00 0.00 27 1008.3
20240222043614 9 334 3.2 8.0 0.00 0.00 0.00 26 1008.2
20240222043002 9 297 3.2 8.0 0.00 0.00 0.00 25 1008.0
20240222042513 10 304 1.6 6.4 0.00 0.00 0.00 26 1007.9
20240222042034 10 303 1.6 8.0 0.00 0.00 0.00 25 1007.9
20240222041610 10 299 0.0 8.0 0.00 0.00 0.00 24 1007.9
20240222040522 10 309 3.2 6.4 0.00 0.00 0.00 24 1007.6
20240222040045 10 323 1.6 8.0 0.00 0.00 0.00 24 1007.6
20240222035621 10 322 3.2 8.0 0.00 0.00 0.00 25 1007.6
20240222035000 9 323 1.6 8.0 0.00 0.00 0.00 26 1007.7
20240222034521 9 333 1.6 8.0 0.00 0.00 0.00 25 1007.6
20240222034031 10 313 1.6 6.4 0.00 0.00 0.00 25 1007.5
20240222033607 10 333 3.2 8.0 0.00 0.00 0.00 25 1007.6
20240222033128 11 320 3.2 8.0 0.00 0.00 0.00 24 1007.4
20240222032527 11 313 3.2 8.0 0.00 0.00 0.00 24 1007.4
20240222032050 12 325 3.2 9.7 0.00 0.00 0.00 23 1007.3
20240222031556 12 304 3.2 11.3 0.00 0.00 0.00 22 1007.2
20240222031116 12 297 3.2 9.7 0.00 0.00 0.00 21 1007.1
20240222030516 12 326 4.8 11.3 0.00 0.00 0.00 21 1007.0
20240222030039 13 295 4.8 11.3 0.00 0.00 0.00 21 1006.9
20240222025609 13 305 4.8 11.3 0.00 0.00 0.00 20 1006.9
20240222025126 14 321 4.8 11.3 0.00 0.00 0.00 19 1006.8
20240222024525 15 348 6.4 16.1 0.00 0.00 0.00 18 1006.9
20240222024037 15 297 8.0 16.1 0.00 0.00 0.00 17 1006.8
20240222023616 15 319 6.4 11.3 0.00 0.00 0.00 18 1006.7
20240222023129 15 308 6.4 11.3 0.00 0.00 0.00 18 1006.6
20240222022533 15 308 4.8 11.3 0.00 0.00 0.00 18 1006.6
20240222022048 15 319 4.8 9.7 0.00 0.00 0.00 18 1006.7
20240222021622 15 300 1.6 12.9 0.00 0.00 0.00 18 1006.6
20240222021005 16 309 4.8 12.9 0.00 0.00 0.00 17 1006.6
20240222020519 17 345 4.8 14.5 0.00 0.00 0.00 15 1006.6
20240222020041 17 309 6.4 14.5 0.00 0.00 0.00 15 1006.4
20240222015610 17 315 6.4 12.9 0.00 0.00 0.00 15 1006.4
20240222015130 17 318 4.8 11.3 0.00 0.00 0.00 15 1006.2
20240222014534 17 295 4.8 16.1 0.00 0.00 0.00 14 1006.2
20240222014048 18 303 6.4 20.9 0.00 0.00 0.00 14 1006.2
20240222013620 18 314 9.7 20.9 0.00 0.00 0.00 14 1006.1
20240222013006 18 290 9.7 19.3 0.00 0.00 0.00 13 1006.0
20240222012518 18 297 8.0 16.1 0.00 0.00 0.00 13 1005.9
20240222012036 19 299 8.0 16.1 0.00 0.00 0.00 13 1005.8
20240222011629 19 271 8.0 16.1 0.00 0.00 0.00 13 1005.9
20240222011012 20 298 8.0 16.1 0.00 0.00 0.00 12 1005.9
20240222010612 20 308 9.7 16.1 0.00 0.00 0.00 12 1005.9
20240222010132 20 272 8.0 19.3 0.00 0.00 0.00 12 1005.8
20240222005526 21 297 9.7 20.9 0.00 0.00 0.00 11 1005.6
20240222005044 21 300 9.7 29.0 0.00 0.00 0.00 11 1005.6
20240222004618 21 316 12.9 29.0 0.00 0.00 0.00 11 1005.5
20240222004134 22 303 12.9 25.7 0.00 0.00 0.00 10 1005.5
20240222003536 22 303 16.1 27.4 0.00 0.00 0.00 10 1005.5
20240222003048 22 302 17.7 27.4 0.00 0.00 0.00 10 1005.3
20240222002602 23 307 16.1 27.4 0.00 0.00 0.00 10 1005.2
20240222002120 23 281 16.1 32.2 0.00 0.00 0.00 10 1005.1
20240222001516 23 227 16.1 32.2 0.00 0.00 0.00 10 1005.0
20240222001034 23 256 12.9 27.4 0.00 0.00 0.00 9 1004.8
20240222000610 24 251 12.9 29.0 0.00 0.00 0.00 9 1004.8
20240222000132 24 225 14.5 30.6 0.00 0.00 0.00 9 1004.7
20240221235533 25 295 16.1 29.0 0.00 0.00 0.00 8 1004.7
20240221235047 25 290 14.5 40.2 0.00 0.00 0.00 9 1004.7
20240221234619 25 300 14.5 40.2 0.00 0.00 0.00 8 1004.8
20240221234130 25 268 19.3 30.6 0.00 0.00 0.00 8 1004.7
20240221233532 25 248 12.9 25.7 0.00 0.00 0.00 8 1004.8
20240221233045 25 285 12.9 38.6 0.00 0.00 0.00 8 1004.9
20240221232622 26 284 16.1 38.6 0.00 0.00 0.00 8 1004.9
20240221232004 26 292 19.3 33.8 0.00 0.00 0.00 7 1004.9
20240221231519 26 262 17.7 33.8 0.00 0.00 0.00 7 1004.9
20240221231037 26 279 16.1 35.4 0.00 0.00 0.00 7 1005.0
20240221230608 26 266 14.5 40.2 0.00 0.00 0.00 7 1004.9
20240221230127 26 294 17.7 40.2 0.00 0.00 0.00 7 1004.9
20240221225521 26 227 20.9 38.6 0.00 0.00 0.00 7 1004.9
20240221225042 26 217 20.9 38.6 0.00 0.00 0.00 7 1004.7
20240221224614 26 250 16.1 38.6 0.00 0.00 0.00 7 1004.7
20240221224138 26 286 22.5 37.0 0.00 0.00 0.00 7 1004.7
20240221223526 27 214 16.1 32.2 0.00 0.00 0.00 7 1004.7
20240221223046 27 212 19.3 32.2 0.00 0.00 0.00 6 1004.9
20240221222620 27 283 19.3 32.2 0.00 0.00 0.00 7 1005.0
20240221222006 27 288 20.9 33.8 0.00 0.00 0.00 7 1005.1
20240221221534 27 297 19.3 37.0 0.00 0.00 0.00 6 1005.2
20240221221051 27 269 19.3 40.2 0.00 0.00 0.00 6 1005.4
20240221220628 27 197 22.5 40.2 0.00 0.00 0.00 6 1005.5
20240221220009 27 245 20.9 35.4 0.00 0.00 0.00 8 1005.4
20240221215540 27 234 14.5 32.2 0.00 0.00 0.00 9 1005.4
20240221215054 27 233 14.5 29.0 0.00 0.00 0.00 8 1005.6
20240221214608 27 218 20.9 32.2 0.00 0.00 0.00 8 1005.6
20240221214124 27 307 19.3 33.8 0.00 0.00 0.00 7 1005.6
20240221213518 27 207 17.7 40.2 0.00 0.00 0.00 7 1005.9
20240221213042 28 296 20.9 40.2 0.00 0.00 0.00 7 1006.2
20240221212612 27 281 16.1 40.2 0.00 0.00 0.00 9 1006.3
20240221212132 27 222 22.5 40.2 0.00 0.00 0.00 9 1006.1
20240221211528 27 187 22.5 40.2 0.00 0.00 0.00 9 1006.4
20240221211046 27 181 16.1 35.4 0.00 0.00 0.00 9 1006.5
20240221210538 27 181 14.5 40.2 0.00 0.00 0.00 8 1006.8
20240221210053 27 178 20.9 40.2 0.00 0.00 0.00 8 1006.9
20240221205600 27 194 25.7 38.6 0.00 0.00 0.00 8 1006.9
20240221205119 27 177 19.3 40.2 0.00 0.00 0.00 8 1007.1
20240221204516 27 188 22.5 40.2 0.00 0.00 0.00 8 1007.1
20240221204037 27 231 19.3 41.8 0.00 0.00 0.00 8 1007.1
20240221203528 27 204 24.1 41.8 0.00 0.00 0.00 8 1007.3
20240221203047 26 288 16.1 30.6 0.00 0.00 0.00 9 1007.5
20240221202620 26 290 14.5 32.2 0.00 0.00 0.00 10 1007.7
20240221202003 26 219 16.1 30.6 0.00 0.00 0.00 10 1007.9
20240221201521 26 281 14.5 29.0 0.00 0.00 0.00 10 1008.0
20240221201036 26 266 14.5 24.1 0.00 0.00 0.00 11 1008.2
20240221200614 26 271 12.9 24.1 0.00 0.00 0.00 11 1008.4
20240221200133 26 314 12.9 24.1 0.00 0.00 0.00 11 1008.5
20240221195528 25 274 14.5 32.2 0.00 0.00 0.00 11 1008.7
20240221195038 26 176 17.7 29.0 0.00 0.00 0.00 10 1008.9
20240221194610 25 287 11.3 24.1 0.00 0.00 0.00 11 1009.0
20240221194132 25 285 14.5 24.1 0.00 0.00 0.00 10 1009.3
20240221193527 26 274 9.7 20.9 0.00 0.00 0.00 10 1009.4
20240221193046 25 296 9.7 20.9 0.00 0.00 0.00 11 1009.7
20240221192620 25 299 11.3 24.1 0.00 0.00 0.00 11 1009.9
20240221192002 24 281 14.5 24.1 0.00 0.00 0.00 11 1010.2
20240221191544 24 236 8.0 19.3 0.00 0.00 0.00 11 1010.3
20240221191041 23 302 11.3 20.9 0.00 0.00 0.00 12 1010.5
20240221190615 23 279 12.9 20.9 0.00 0.00 0.00 11 1010.6
20240221190132 23 255 11.3 20.9 0.00 0.00 0.00 11 1010.9
20240221185512 23 268 11.3 20.9 0.00 0.00 0.00 11 1011.1
20240221185030 23 282 11.3 24.1 0.00 0.00 0.00 12 1011.3
20240221184608 22 264 9.7 24.1 0.00 0.00 0.00 12 1011.5
20240221184128 22 255 12.9 22.5 0.00 0.00 0.00 12 1011.7
20240221183525 22 233 16.1 25.7 0.00 0.00 0.00 12 1011.8
20240221183046 22 272 14.5 25.7 0.00 0.00 0.00 12 1011.9
20240221182617 23 276 12.9 25.7 0.00 0.00 0.00 11 1012.0
20240221182001 23 236 11.3 0.0 0.00 0.00 0.00 12 1012.1
20240221181544 23 262 11.3 17.7 0.00 0.00 0.00 12 1012.2
20240221181052 22 283 6.4 12.9 0.00 0.00 0.00 14 1012.2
20240221180542 22 312 8.0 12.9 0.00 0.00 0.00 13 1012.4
20240221180123 21 323 3.2 8.0 0.00 0.00 0.00 14 1012.5
20240221175603 21 328 1.6 8.0 0.00 0.00 0.00 16 1012.6
20240221175121 21 288 1.6 6.4 0.00 0.00 0.00 16 1012.8
20240221174524 20 266 1.6 8.0 0.00 0.00 0.00 18 1013.0
20240221174033 20 295 1.6 9.7 0.00 0.00 0.00 18 1013.2
20240221173604 19 297 3.2 9.7 0.00 0.00 0.00 18 1013.4
20240221173119 19 285 3.2 9.7 0.00 0.00 0.00 19 1013.6
20240221172526 18 295 4.8 9.7 0.00 0.00 0.00 19 1013.7
20240221172039 18 307 4.8 9.7 0.00 0.00 0.00 20 1013.8
20240221171617 18 276 4.8 9.7 0.00 0.00 0.00 20 1014.0
20240221171131 18 304 4.8 9.7 0.00 0.00 0.00 21 1014.2
20240221170531 17 289 4.8 9.7 0.00 0.00 0.00 22 1014.4
20240221170045 16 295 3.2 9.7 0.00 0.00 0.00 23 1014.5
20240221165535 16 321 4.8 9.7 0.00 0.00 0.00 23 1014.7
20240221165049 15 281 4.8 8.0 0.00 0.00 0.00 24 1014.8
20240221164556 15 310 3.2 11.3 0.00 0.00 0.00 25 1014.8
20240221164118 15 291 4.8 11.3 0.00 0.00 0.00 24 1014.9
20240221163517 15 333 4.8 9.7 0.00 0.00 0.00 26 1014.8
20240221163039 14 309 4.8 11.3 0.00 0.00 0.00 26 1014.8
20240221162610 14 305 6.4 11.3 0.00 0.00 0.00 26 1014.9
20240221162132 13 311 4.8 9.7 0.00 0.00 0.00 27 1015.0
20240221161524 13 290 3.2 14.5 0.00 0.00 0.00 28 1015.0
20240221161047 13 327 6.4 14.5 0.00 0.00 0.00 28 1015.1
20240221160623 12 300 6.4 12.9 0.00 0.00 0.00 28 1015.1
20240221160005 12 304 8.0 12.9 0.00 0.00 0.00 28 1015.1
20240221155514 12 291 6.4 11.3 0.00 0.00 0.00 29 1015.1
20240221155029 12 300 6.4 11.3 0.00 0.00 0.00 29 1015.2
20240221154608 12 309 6.4 11.3 0.00 0.00 0.00 30 1015.1
20240221154123 12 293 6.4 11.3 0.00 0.00 0.00 30 1015.1
20240221153631 12 295 4.8 9.7 0.00 0.00 0.00 30 1015.3
20240221153114 12 281 3.2 9.7 0.00 0.00 0.00 31 1015.3
20240221152506 11 282 3.2 9.7 0.00 0.00 0.00 32 1015.3
20240221152011 11 302 4.8 9.7 0.00 0.00 0.00 32 1015.3
20240221151535 10 278 3.2 9.7 0.00 0.00 0.00 32 1015.3
20240221151105 10 300 3.2 9.7 0.00 0.00 0.00 34 1015.3
20240221150506 9 290 1.6 9.7 0.00 0.00 0.00 35 1015.3
20240221150023 10 307 4.8 9.7 0.00 0.00 0.00 34 1015.3
20240221145539 9 264 3.2 8.0 0.00 0.00 0.00 36 1015.2
20240221145055 8 285 3.2 8.0 0.00 0.00 0.00 37 1015.1
20240221144614 8 311 3.2 8.0 0.00 0.00 0.00 38 1015.2
20240221144013 7 291 3.2 8.0 0.00 0.00 0.00 39 1015.1
20240221143536 6 311 1.6 6.4 0.00 0.00 0.00 40 1015.0
20240221143105 6 319 1.6 6.4 0.00 0.00 0.00 42 1014.9
20240221142505 5 321 3.2 6.4 0.00 0.00 0.00 44 1015.0
20240221142021 4 281 1.6 6.4 0.00 0.00 0.00 46 1015.1
20240221141539 3 276 1.6 6.4 0.00 0.00 0.00 47 1015.1
20240221141112 3 291 0.0 3.2 0.00 0.00 0.00 48 1015.1
20240221140627 3 287 0.0 1.6 0.00 0.00 0.00 49 1015.1
20240221140101 2 293 0.0 1.6 0.00 0.00 0.00 50 1015.1
20240221135502 2 294 0.0 1.6 0.00 0.00 0.00 51 1015.1
20240221135025 1 297 0.0 0.0 0.00 0.00 0.00 53 1015.1
20240221134540 1 296 0.0 0.0 0.00 0.00 0.00 53 1015.2
20240221134053 1 293 0.0 1.6 0.00 0.00 0.00 53 1015.1
20240221133613 1 300 0.0 0.0 0.00 0.00 0.00 53 1015.3
20240221133015 0 295 0.0 0.0 0.00 0.00 0.00 54 1015.3
20240221132528 0 295 0.0 0.0 0.00 0.00 0.00 54 1015.3
20240221132030 0 295 0.0 0.0 0.00 0.00 0.00 53 1015.3
20240221131613 0 295 0.0 0.0 0.00 0.00 0.00 53 1015.3
20240221131017 0 295 0.0 0.0 0.00 0.00 0.00 52 1015.2
20240221130530 1 295 0.0 1.6 0.00 0.00 0.00 52 1015.2
20240221130058 1 295 0.0 1.6 0.00 0.00 0.00 51 1015.2
20240221125615 1 297 0.0 0.0 0.00 0.00 0.00 50 1015.3
20240221125017 2 276 0.0 0.0 0.00 0.00 0.00 48 1015.3
20240221124528 2 283 0.0 0.0 0.00 0.00 0.00 47 1015.2
20240221124103 2 285 0.0 0.0 0.00 0.00 0.00 45 1015.1
20240221123621 3 300 0.0 1.6 0.00 0.00 0.00 45 1015.1
20240221123019 3 294 0.0 3.2 0.00 0.00 0.00 44 1015.1
20240221122540 3 311 0.0 4.8 0.00 0.00 0.00 43 1015.2
20240221122049 3 317 1.6 6.4 0.00 0.00 0.00 43 1015.2
20240221121611 3 309 1.6 6.4 0.00 0.00 0.00 43 1015.3
20240221121013 3 321 0.0 6.4 0.00 0.00 0.00 42 1015.4
20240221120532 4 315 1.6 6.4 0.00 0.00 0.00 42 1015.5
20240221120111 4 324 1.6 4.8 0.00 0.00 0.00 42 1015.5
20240221115509 4 316 0.0 6.4 0.00 0.00 0.00 42 1015.7
20240221115021 4 319 1.6 8.0 0.00 0.00 0.00 42 1015.6
20240221114537 4 305 3.2 9.7 0.00 0.00 0.00 42 1015.7
20240221114128 3 313 3.2 9.7 0.00 0.00 0.00 43 1015.7
20240221113513 3 326 3.2 8.0 0.00 0.00 0.00 44 1015.8
20240221113029 3 311 1.6 8.0 0.00 0.00 0.00 44 1015.8
20240221112544 3 293 1.6 8.0 0.00 0.00 0.00 44 1015.9
20240221112114 3 309 1.6 6.4 0.00 0.00 0.00 44 1015.9
20240221111501 3 298 0.0 8.0 0.00 0.00 0.00 43 1015.8
20240221111034 3 302 1.6 8.0 0.00 0.00 0.00 43 1015.8
20240221110553 3 321 1.6 8.0 0.00 0.00 0.00 43 1015.8
20240221110131 3 309 1.6 8.0 0.00 0.00 0.00 43 1015.8
20240221105509 3 307 3.2 6.4 0.00 0.00 0.00 45 1015.7
20240221105043 3 302 0.0 1.6 0.00 0.00 0.00 45 1015.8
20240221104603 3 311 0.0 0.0 0.00 0.00 0.00 45 1015.7
20240221104133 3 293 0.0 1.6 0.00 0.00 0.00 44 1015.8
20240221103517 3 314 0.0 1.6 0.00 0.00 0.00 43 1015.9
20240221103041 4 290 0.0 1.6 0.00 0.00 0.00 42 1015.8
20240221102548 4 328 0.0 1.6 0.00 0.00 0.00 41 1015.8
20240221102124 4 323 0.0 4.8 0.00 0.00 0.00 41 1015.8
20240221101504 4 331 0.0 4.8 0.00 0.00 0.00 41 1015.9